CAPE
781 927 1080 1558 1556 1486 1523 1647 1651 1545 1441 1534 1726 1793 1732 1735 1774 1711 1662 1829 1998 2052 2139 2088 2058 2038 1955 1956 1988 1974 1939 1900 1899 1896 1813 1838 1767 1711 1714 1317 1322 1232 1340 1331 1238 988 926 828 677 613 657 720 286 188 220 285 365 574 445 442 449 553 516 464 412 433 721 667 702 808 682 813 1007 725 374 274 290 156 83 70 208 326 136 83 95
822 904 1194 1586 1628 1574 1483 1571 1555 1555 1445 1522 1743 1648 1768 1788 1812 1660 1677 1955 2097 2176 2120 2079 2061 2046 1965 1984 1970 2044 2008 1913 1907 1916 1844 1785 1850 1892 1584 1227 1252 1244 1250 1254 1310 1085 922 792 652 556 472 426 508 357 209 198 202 283 359 456 427 419 452 444 444 465 354 458 544 631 638 604 814 792 525 302 272 238 115 107 144 151 132 146 150
943 1093 1280 1645 1426 1498 1441 1505 1512 1510 1375 1543 1656 1731 1778 1873 1764 1830 1956 2182 2209 2149 2080 2091 2093 2030 2021 1993 1993 1997 1991 1967 1922 1943 1916 1913 1819 1711 1310 1184 1240 1242 1237 1288 1170 920 847 758 697 612 508 412 328 192 191 252 285 222 219 258 270 394 496 550 635 668 669 674 618 538 630 619 647 633 548 442 363 265 285 237 118 225 117 29 21
1040 1159 1353 1348 1264 1571 1528 1419 1380 1514 1442 1500 1669 1741 1822 1822 1803 1961 2171 2120 2016 2009 1999 2037 2067 2066 2067 2070 2106 2047 2004 2001 1964 1900 1876 1753 1747 1601 1404 1379 1374 1469 1386 1239 940 851 864 850 809 719 643 390 180 172 226 193 220 370 483 470 490 405 394 476 534 391 323 345 292 250 235 95 308 342 372 333 242 165 119 99 86 79 78 95 84
1076 1223 1287 1228 1333 1559 1537 1485 1471 1352 1425 1563 1658 1773 1900 1844 1959 2093 2100 2013 2073 2047 2065 2055 2055 2070 2040 2016 2013 2027 2041 1967 1924 1878 1880 1798 1714 1736 1604 1476 1586 1472 1361 1222 1147 1117 1097 1122 958 749 626 285 175 173 175 152 232 306 364 429 544 380 415 301 202 271 257 209 180 82 5 22 86 172 249 254 193 156 134 68 53 57 35 32 51
1122 1177 1166 1237 1203 1354 1551 1496 1326 1149 1454 1461 1697 1806 1802 1867 1866 1981 2130 2106 2043 2086 2072 2081 2074 2090 2098 2112 2067 2076 2040 1981 1880 1822 1806 1830 1755 1737 1725 1655 1557 1457 1365 1440 1149 1182 1278 1145 1010 759 495 318 341 334 246 176 171 178 243 292 396 410 555 411 392 847 662 140 150 14 0 4 52 183 180 126 121 119 152 72 35 37 23 44 40
1092 1066 1072 1122 1100 1294 1579 1475 1164 1274 1470 1601 1643 1812 1781 1831 1926 1962 1973 2072 2134 2156 2088 2134 2115 2122 2114 2071 2069 2115 2040 2004 1953 1869 1785 1744 1722 1680 1698 1695 1604 1464 1358 1053 1051 1148 1208 1196 1171 967 562 468 427 313 293 346 334 345 356 362 458 475 412 409 479 562 573 352 20 5 0 5 198 423 445 314 336 345 210 154 146 119 60 50 35
1038 992 1030 982 1061 1430 1505 1282 1176 1369 1428 1558 1646 1609 1692 1808 1910 1989 2100 2122 2122 2120 2114 2141 2149 2102 2108 2083 2103 2034 2018 2006 1926 1763 1682 1672 1701 1736 1668 1652 1488 1432 1421 1363 1069 897 970 1003 1004 932 628 575 568 575 484 394 384 495 543 563 516 627 616 551 724 938 757 855 359 14 0 184 360 464 566 608 530 336 245 156 117 92 29 29 40
1281 1121 852 909 1094 1435 1458 1228 1172 1192 1392 1336 1544 1540 1630 1930 1937 2026 2099 2106 2141 2159 2182 2184 2163 2128 2063 2030 2022 2057 2003 2011 1926 1759 1649 1667 1761 1758 1671 1554 1466 1247 1106 1050 1037 1029 998 1006 898 885 809 701 793 635 719 763 821 796 778 743 785 864 845 960 1146 1134 1140 918 185 0 9 96 320 407 533 318 156 148 241 278 365 109 97 33 41
1372 1229 980 915 1120 1266 1409 1326 1100 1227 1267 1442 1454 1542 1840 2059 2154 2182 2222 2121 2158 2170 2209 2269 2214 2094 2022 2026 1974 1939 1966 1944 1976 1906 1803 1690 1547 1466 1508 1450 1150 1079 1188 1270 1203 1151 1076 1154 1143 1008 812 871 947 921 997 976 1028 1019 1111 1022 1181 1170 1081 1320 939 633 483 618 7 0 40 556 326 306 371 276 114 68 56 67 227 101 187 108 81
1316 1250 1210 914 1060 1424 1417 1346 1229 1258 1327 1372 1604 1786 1978 2112 2150 2168 2131 2159 2192 2221 2185 2209 2125 2046 2055 2005 1934 1956 1886 1855 1804 1863 1716 1729 1706 1649 1605 1460 1415 1365 1243 1157 1082 1126 1218 1237 1255 1286 1272 1135 1007 1026 1114 937 1076 1098 1269 1136 1308 1250 1356 1004 541 19 240 579 1 2 701 536 187 232 377 305 282 196 111 142 140 111 103 87 82
1294 1362 1193 931 1282 1385 1404 1219 1267 1367 1314 1549 1830 2033 2129 2115 2117 2186 2197 2180 2199 2247 2234 2140 2074 2004 1979 1952 1939 1872 1786 1798 1674 1536 1433 1450 1481 1344 1297 1243 1222 1208 1086 1096 1127 1112 1208 1245 1378 1305 1399 1368 1403 1208 1109 1213 1146 1185 1440 1344 1414 1412 1446 1036 305 13 355 491 49 125 623 530 206 349 496 340 283 144 128 131 110 114 91 40 26
1418 1384 1107 982 1163 1244 1204 1287 1240 1287 1489 1804 1947 2123 2162 2151 2198 2183 2230 2250 2171 2182 2152 2082 1988 1964 1916 1882 1808 1743 1642 1564 1477 1402 1312 1238 1230 1118 1002 1031 1009 1039 992 1029 1094 1205 1153 1142 1210 1258 1273 1330 1317 1417 1298 1367 1328 1358 1494 1502 1475 1444 1406 1253 486 32 228 189 214 511 484 17 230 699 454 424 369 209 158 136 102 83 78 76 35
1549 1278 1069 943 1060 1022 1242 1502 1463 1309 1571 1914 2159 2156 2175 2296 2180 2266 2229 2214 2126 2054 2052 1955 1927 1847 1772 1766 1700 1613 1492 1322 1286 1222 1155 1048 996 923 819 840 807 804 786 881 1010 1101 1104 1188 1179 1320 1395 1306 1278 1369 1388 1420 1554 1581 1592 1551 1500 1519 1585 1094 874 107 100 223 366 446 0 90 270 760 563 598 438 270 189 135 94 56 47 36 19
1429 1351 1055 851 895 1080 1370 1407 1585 1608 2086 2207 2211 2254 2254 2232 2217 2184 2147 2114 2053 2004 1939 1858 1820 1782 1726 1639 1519 1424 1311 1214 1168 1117 968 930 892 789 646 600 589 555 618 712 838 902 1029 1114 1134 1174 1257 1305 1431 1384 1192 1441 1632 1638 1726 1475 1383 1608 1763 1300 625 123 170 338 328 170 3 13 294 730 676 571 455 345 256 193 102 76 18 20 17
1225 1199 845 878 1022 1111 1105 1383 1557 1707 2089 2140 2195 2152 2222 2244 2227 2173 2142 2009 2003 1986 1874 1793 1751 1700 1569 1451 1377 1339 1265 1211 1102 1015 839 752 721 607 582 533 519 558 541 496 580 676 807 843 1008 1162 1149 1234 1422 1197 1449 1676 1659 1605 1707 1487 1367 1735 1935 1610 415 168 133 258 26 138 4 38 582 808 803 721 433 306 299 217 85 31 16 4 8
632 720 942 1099 1241 1130 1203 1408 1732 2164 2182 2215 2166 2195 2210 2178 2188 2104 2017 1987 1974 1870 1832 1713 1704 1628 1482 1405 1346 1297 1251 1085 970 905 982 799 706 638 582 506 482 346 442 419 520 485 691 763 888 1005 1124 1111 1083 1300 1538 1519 1731 1676 1421 1515 1041 1699 1973 1198 543 129 27 44 114 41 0 8 638 861 930 811 508 397 360 309 238 68 16 18 9
786 933 1136 1354 1407 1621 1730 1851 1935 1923 1969 2190 2293 2068 2143 2136 2122 2032 1952 1867 1880 1837 1717 1677 1631 1621 1529 1407 1357 1285 1127 1042 1056 1044 976 881 743 746 700 663 529 507 320 433 442 504 446 663 755 981 1073 947 1137 1388 1456 1572 1741 1762 1752 1695 1674 1688 1928 840 546 520 54 274 51 60 8 100 581 958 951 790 675 371 307 385 300 153 42 29 13
871 1029 1223 1392 1593 1702 1784 1816 1790 1869 1869 1871 1924 2042 2119 2116 2010 2009 1864 1865 1798 1794 1760 1643 1635 1575 1465 1408 1457 1396 1268 1214 1124 1080 962 819 734 713 769 762 741 654 695 512 668 537 376 314 622 894 596 921 980 1215 1378 1475 1627 1768 1923 1743 1855 2121 1652 300 78 650 375 250 6 9 0 138 542 1003 1046 941 829 583 515 436 294 265 131 65 26
848 1017 1190 1413 1519 1573 1679 1708 1774 1754 1630 1711 1854 1919 2059 2048 1984 1952 1895 1733 1735 1738 1657 1639 1739 1632 1575 1516 1530 1449 1398 1342 1257 1134 1028 819 817 882 964 749 818 711 869 813 952 709 648 512 577 568 770 877 995 1070 1238 1363 1603 1815 2066 1820 1828 2227 328 3 23 392 489 90 104 1 39 369 587 959 1068 1039 950 803 651 525 384 369 259 198 78
760 998 1189 1304 1391 1446 1424 1576 1705 1662 1634 1695 1776 1879 1969 2023 1824 1899 1861 1720 1647 1659 1741 1672 1682 1718 1733 1628 1582 1271 1251 1241 1019 906 1145 956 996 906 847 798 746 820 847 974 927 1047 1135 762 546 535 690 881 993 1117 1028 868 947 1338 1620 1841 2261 1205 322 4 2 438 616 696 706 282 242 579 775 1068 1172 1049 993 917 670 692 560 496 405 449 438
683 946 1106 1151 1188 1248 1336 1494 1587 1602 1646 1666 1732 1776 1849 1775 1688 1653 1578 1409 1509 1690 1545 1607 1631 1532 1713 1504 1339 1411 1163 983 981 1387 1326 1378 1181 1075 992 922 916 1031 1158 1223 1255 1166 1208 1216 1229 1023 806 690 818 96 17 59 230 697 1282 1639 773 508 96 18 493 560 571 621 697 569 293 731 1049 1140 1244 1298 1070 1028 688 720 778 667 483 531 577
607 875 1009 1009 979 1035 1180 1312 1478 1545 1619 1616 1616 1682 1656 1606 1590 1566 1412 1559 1597 1724 1460 1568 1571 1516 1511 1434 1284 1119 1048 839 1123 1124 1604 1442 1322 1120 1152 1119 1234 1296 1332 1481 1387 1364 1315 1217 1207 1334 1249 1030 84 0 0 0 0 388 566 696 825 892 884 709 370 462 522 582 602 584 579 754 1193 1178 1353 1524 1295 1190 992 877 918 863 760 563 628
551 710 798 896 896 867 1016 1210 1309 1471 1501 1516 1594 1564 1475 1422 1460 1350 1286 1338 1508 1379 1383 1588 1535 1386 1504 1417 1241 994 1423 1124 1524 1408 1630 1550 1016 1159 1486 1338 1249 979 1241 890 770 722 951 685 667 894 704 33 0 0 83 111 124 133 133 136 208 314 587 741 781 658 554 608 563 464 783 946 1391 1351 1501 1724 1635 1459 1408 1192 1136 1071 986 705 624
484 562 685 740 845 842 938 1135 1219 1318 1383 1462 1546 1420 1288 1329 1380 1222 1202 1126 1402 1330 1227 1369 1512 1300 1378 1421 1415 1187 1388 1451 1280 1156 1472 1320 810 752 827 1088 1176 1078 1083 475 2 213 766 888 767 691 559 82 51 0 0 0 0 0 0 0 20 102 164 453 669 840 790 626 313 827 885 1068 1706 1628 1673 1987 1927 1748 1605 1529 1356 1290 1220 966 747
476 530 631 720 788 865 935 1052 1143 1212 1291 1355 1360 1400 1303 1206 1232 1203 1182 1016 1270 1322 1025 1062 1385 1480 1152 1190 1352 1384 1215 1354 1349 1513 1538 1051 930 737 1038 1283 922 980 1057 464 263 799 1092 1002 872 756 698 496 454 454 744 811 786 717 291 0 1 52 91 329 478 676 848 518 218 756 1147 1162 1870 1713 1704 2169 2187 2084 1797 1721 1759 1615 1419 1308 787
516 512 599 664 740 863 985 1150 1225 1288 1198 1204 1186 1280 1141 1073 1098 1248 1110 909 1102 1293 1055 891 1184 1443 1296 1278 1310 1073 919 815 824 790 671 696 714 960 1004 733 698 1141 807 585 688 738 1030 784 741 720 948 1104 1101 887 804 824 780 749 718 645 560 304 384 443 525 671 613 360 289 666 1346 1474 1676 1834 1998 2147 2278 2350 2180 1900 1861 1210 1083 1065 725
564 560 612 616 643 775 947 1067 1117 1193 1177 1232 1248 1227 1090 1134 1036 1322 1210 873 978 1299 1155 975 1190 1338 1203 1236 1243 956 906 1021 991 898 863 774 1120 1116 807 689 742 713 544 510 584 781 757 770 743 789 954 1117 1231 1045 870 822 841 849 805 811 821 737 734 705 631 666 674 688 582 383 1421 1635 1649 1762 1998 2255 2252 2221 2484 2052 1670 1326 1048 1034 886
603 532 533 594 631 715 928 944 950 1078 1151 1276 1237 1159 1113 1061 972 1120 1244 1160 1206 1192 1324 1111 1168 1294 1543 1683 1436 1141 1371 1376 1267 1290 1001 910 808 733 574 584 654 611 710 675 752 860 766 734 762 823 910 1013 1037 841 790 773 804 813 802 819 828 843 812 853 900 914 926 966 953 893 1255 2038 1755 1536 1849 2269 2352 2157 2115 2097 1506 1171 807 1128 928
770 749 628 522 569 715 839 959 976 1027 1039 1188 1044 1020 1021 967 962 999 1167 1175 1333 1218 1276 1148 1224 1535 1532 1450 1319 973 1058 1162 1548 1290 1158 809 724 569 644 695 671 672 798 775 809 845 822 819 717 776 782 801 794 812 816 790 782 778 768 735 756 738 778 784 794 938 1010 1058 1044 955 1124 1572 1785 1676 1543 1833 2208 2288 2172 1534 1559 1248 837 1005 931
993 888 735 626 589 679 761 909 976 935 839 912 873 833 910 924 909 959 1072 1181 1166 1210 1206 1102 1286 1360 1208 1387 1598 1730 1444 1519 1481 1329 1171 780 693 630 785 676 628 660 667 646 706 920 962 870 774 700 675 684 708 722 777 785 779 747 713 667 652 628 635 647 671 690 934 1056 1069 1000 948 1124 1770 1976 1880 1621 1606 1884 1755 2083 1146 1274 945 918 972
1141 937 785 714 636 606 661 708 715 766 608 572 614 688 760 884 928 921 970 1008 1078 1086 1103 967 1091 1029 1007 1277 1455 1545 1411 1320 1411 1377 978 703 591 597 733 678 754 738 754 770 691 800 840 801 758 738 656 608 547 550 526 601 639 648 602 550 500 450 422 387 340 371 460 625 745 785 826 946 1094 1842 2174 1721 1330 1209 972 888 1017 818 760 922 997
1209 1073 901 827 711 659 694 576 426 454 446 382 509 609 752 842 873 873 876 914 969 973 952 844 829 779 850 1177 1225 1367 1380 1424 1350 1198 788 598 450 538 660 692 807 839 676 618 604 655 699 685 614 561 505 409 391 298 304 352 400 397 416 399 356 288 239 192 236 295 367 464 554 667 782 893 1022 1055 1009 997 982 955 924 912 969 907 950 886 866
1322 1155 987 873 753 750 724 528 528 427 274 290 514 644 666 657 692 761 811 825 886 900 865 788 724 688 933 1097 1168 1277 1290 1242 1094 893 712 703 798 828 878 934 840 561 558 556 568 489 432 378 326 311 276 287 265 272 282 262 284 302 305 258 202 106 109 190 209 248 318 434 536 605 681 727 792 841 868 895 846 793 851 831 1098 1141 1244 1048 917
1386 1150 1064 878 831 790 619 547 474 441 269 353 490 544 613 666 750 840 857 859 863 851 799 723 615 710 991 914 1140 1200 1132 977 882 802 864 928 917 855 894 944 779 566 464 458 510 478 410 300 253 266 277 248 242 19 232 230 232 230 207 177 0 0 0 0 147 201 270 366 483 546 632 683 724 718 676 677 642 645 717 707 770 778 997 900 786
1422 1237 1041 973 898 745 608 740 682 420 242 396 474 513 626 738 788 810 832 815 791 743 672 684 678 790 764 940 1046 1049 1004 846 849 888 919 875 692 636 701 764 706 594 455 442 414 418 327 286 248 0 0 0 0 112 0 0 0 0 0 0 0 0 0 0 0 190 242 320 410 506 564 606 585 534 509 514 497 491 494 604 647 617 523 458 465
1408 1191 1038 993 876 871 825 797 571 498 418 424 455 457 568 633 687 706 725 733 752 730 751 779 839 625 700 852 970 984 872 853 874 778 698 632 527 467 509 545 557 541 458 414 373 358 366 332 279 77 0 0 0 0 0 0 0 0 0 0 0 0 0 0 0 8 246 309 363 443 520 516 515 464 398 354 365 400 401 460 482 468 421 327 0
1301 1121 1022 974 932 910 812 686 549 532 456 449 462 462 476 519 534 582 640 689 738 772 802 824 727 591 662 782 866 872 832 826 827 808 754 638 476 423 418 420 409 406 398 361 333 322 317 274 225 0 0 0 0 0 0 0 0 0 0 0 0 0 0 0 0 64 262 292 338 399 428 400 402 306 273 295 311 282 309 331 320 340 321 318 175
1223 1109 1029 947 871 819 660 420 571 586 555 516 511 522 575 603 598 618 687 693 739 817 811 721 648 656 751 802 827 801 765 735 722 727 713 602 502 469 441 410 370 348 348 349 317 263 35 0 0 0 0 0 0 0 0 0 0 0 0 0 0 0 0 0 0 0 181 248 308 405 419 438 359 57 0 49 190 224 234 231 250 275 276 260 234
1094 930 832 737 702 546 402 522 565 615 636 644 654 642 706 822 812 792 788 709 730 738 721 630 597 644 714 764 796 794 739 680 630 619 606 529 512 507 443 401 403 381 351 319 271 0 0 0 0 0 0 0 0 0 0 0 0 0 0 0 0 0 0 0 0 0 0 64 314 385 444 419 401 170 0 0 4 62 94 205 179 241 235 0 0
910 832 740 604 590 554 519 496 559 616 651 711 768 788 766 802 820 774 747 715 693 657 611 566 594 608 645 718 739 728 729 699 628 596 604 567 480 425 409 338 341 322 294 258 0 0 0 0 0 0 0 0 0 0 0 0 0 0 0 0 0 63 0 0 0 0 0 0 0 196 286 330 298 198 0 0 0 0 0 0 0 0 0 0 0
816 761 608 509 614 613 575 567 634 665 676 725 798 850 866 816 792 706 606 648 635 614 580 570 590 553 588 661 672 621 598 607 558 519 486 408 352 282 406 452 444 378 301 99 0 0 0 0 0 0 0 0 0 0 0 0 0 0 0 0 0 0 0 0 130 239 326 295 321 242 238 218 105 0 0 0 0 0 0 0 0 0 0 0 0
732 669 655 649 672 683 674 694 721 748 763 805 864 930 906 807 802 699 642 654 591 574 538 558 563 544 592 632 625 606 573 568 578 565 504 466 426 381 368 353 356 307 246 0 0 0 0 0 0 0 0 0 0 0 0 0 0 0 0 0 0 0 0 0 0 0 101 155 175 117 0 0 0 0 0 0 0 0 0 0 0 0 0 0 0
593 676 731 751 725 742 784 785 842 923 942 934 981 1018 935 835 815 723 645 549 514 488 439 543 586 592 591 569 587 572 563 532 467 401 331 288 269 258 249 241 236 15 0 0 0 0 0 0 0 0 0 0 0 0 0 0 0 0 0 0 0 0 0 0 0 0 0 0 0 0 0 0 0 0 0 0 0 0 0 0 0 0 0 0 0
667 697 715 743 746 779 801 843 989 1078 1030 980 943 948 889 840 813 719 613 454 372 351 416 522 549 546 590 617 654 564 480 387 280 160 0 0 0 0 0 0 0 0 0 0 0 0 0 0 0 0 0 0 0 0 0 0 0 0 0 0 0 0 0 0 0 0 0 0 0 0 0 0 0 0 0 0 0 0 0 0 0 0 0 0 0
700 786 776 801 826 904 918 1016 1110 1123 1047 966 851 868 863 738 746 640 511 411 327 404 461 511 458 530 610 581 550 427 294 197 130 0 0 0 0 0 0 0 0 0 0 0 0 0 0 0 0 0 0 0 0 0 0 0 0 0 0 0 0 0 0 0 0 0 0 0 0 0 0 0 0 0 0 0 0 0 0 0 0 0 0 0 0
802 894 930 957 975 971 1030 1108 1139 1131 1021 945 854 879 833 702 672 543 409 401 399 421 415 448 528 540 521 435 250 71 0 0 0 0 0 0 0 0 0 0 0 0 0 0 0 0 0 0 0 0 0 0 0 0 0 0 0 0 0 0 0 0 0 0 0 0 0 0 0 0 0 0 0 0 0 0 0 0 0 0 0 0 0 0 0
911 1006 1070 1011 1019 1069 1102 1114 1109 1026 964 934 865 847 840 710 596 482 411 439 383 326 346 469 500 452 303 193 23 114 53 0 0 0 0 0 0 0 0 0 0 0 0 0 0 0 0 0 0 0 0 0 0 0 0 0 0 0 0 0 0 0 0 0 0 0 0 0 0 0 0 0 0 0 0 0 0 0 0 0 0 0 0 0 0
1034 1149 1124 1042 1083 1129 1148 1128 1098 898 877 921 879 822 775 660 548 483 460 418 381 408 441 416 350 257 213 177 122 76 0 0 0 0 0 0 0 0 0 0 0 0 0 0 0 0 0 0 0 0 0 0 0 0 0 0 0 0 0 0 0 0 0 0 0 0 0 0 0 0 0 0 0 0 0 0 0 0 0 0 0 0 0 0 0
1021 1081 1088 1040 1096 1076 1125 1072 1122 868 885 923 876 770 744 694 634 604 554 526 516 494 376 293 271 252 221 175 0 0 157 0 0 0 0 0 0 0 0 0 0 0 0 0 0 0 0 0 0 0 0 0 0 0 0 0 0 0 0 0 0 0 0 0 0 0 0 0 0 0 0 0 0 0 0 0 0 0 0 0 0 0 0 0 0
1086 991 986 976 1039 1046 1120 1135 1124 934 816 888 797 768 754 746 716 707 629 531 436 360 291 300 294 277 171 20 0 0 0 0 0 0 0 0 0 0 0 0 0 0 0 0 0 0 0 0 0 0 0 0 0 0 0 0 0 0 0 0 0 0 0 0 0 0 0 0 0 0 0 0 0 0 0 0 0 0 0 0 0 0 0 0 0
Wind_Speed
26 29 27 35 38 41 43 44 44 45 45 43 39 35 31 29 29 28 26 24 23 22 22 23 24 23 22 22 22 23 24 24 24 23 21 19 16 14 13 11 11 10 11 11 11 11 11 12 12 12 11 10 9 9 9 9 9 8 7 7 7 7 7 8 9 10 9 9 10 10 10 12 13 14 12 13 15 16 nan nan 13 8 9 nan nan
33 28 28 32 37 38 42 43 43 44 45 43 40 36 32 30 29 27 26 24 23 22 22 23 23 23 22 21 22 22 23 24 25 24 22 20 18 16 14 12 12 12 12 13 13 12 12 12 12 12 11 10 10 10 10 11 11 10 9 8 9 9 8 8 8 7 7 8 9 10 10 10 11 12 13 14 15 16 16 16 16 10 10 17 18
32 30 29 31 39 39 40 42 43 43 44 43 40 36 32 30 29 28 26 24 22 22 22 22 22 23 22 21 21 22 22 23 24 24 23 22 20 18 16 14 14 13 14 14 13 12 12 12 11 11 11 11 12 13 13 12 11 10 10 10 11 10 9 9 8 7 7 8 7 8 10 11 11 12 13 14 15 16 16 17 17 16 14 nan nan
34 30 29 34 39 37 38 41 42 43 43 42 40 35 32 30 30 28 25 24 23 22 22 23 22 22 22 21 20 21 22 23 24 25 24 23 21 19 17 15 14 14 14 14 14 12 12 11 11 11 11 12 13 14 14 14 13 12 11 11 10 10 11 10 9 10 9 9 8 6 4 nan 7 12 14 15 16 17 17 nan nan nan nan nan nan
34 32 30 30 31 33 38 41 41 42 42 42 40 36 32 31 30 27 25 24 23 22 22 22 23 23 22 21 20 21 21 23 23 24 24 22 21 19 18 17 16 14 15 15 13 12 12 11 11 11 12 13 14 15 15 15 14 12 12 11 9 9 11 11 11 11 11 11 10 nan nan nan nan 13 15 16 16 17 18 nan nan nan nan nan nan
34 32 30 30 30 32 37 40 41 42 41 42 40 35 32 31 31 28 26 24 23 22 22 23 23 23 22 21 21 21 21 22 23 24 23 22 20 19 19 18 17 15 15 15 13 12 12 11 11 11 12 13 14 15 14 14 13 13 12 11 11 9 6 8 13 13 11 11 9 nan nan nan nan 11 17 16 15 17 19 nan nan nan nan nan nan
37 32 31 31 29 31 36 39 41 40 41 42 40 36 32 31 30 28 26 24 23 22 22 23 23 23 23 21 21 20 21 22 22 22 22 22 21 20 19 18 17 16 16 15 13 12 11 10 10 10 11 13 14 14 13 12 11 11 10 10 9 8 9 8 8 6 6 11 nan nan nan nan 9 11 16 15 16 17 19 20 20 20 nan nan nan
33 31 32 31 29 33 36 40 40 40 41 41 40 36 32 31 30 28 25 23 22 22 22 22 23 23 23 21 21 21 21 22 23 22 22 22 22 20 19 17 16 16 15 14 12 11 10 9 9 10 11 12 12 11 11 10 10 10 10 10 9 8 7 6 6 6 8 10 10 nan nan 9 11 12 18 18 17 17 18 18 19 nan nan nan nan
32 33 33 31 30 37 37 39 39 40 41 41 40 36 32 30 30 28 25 23 22 22 23 22 23 24 22 21 20 21 22 23 23 22 21 21 20 19 17 17 16 15 15 13 12 10 9 8 8 8 9 10 9 8 8 9 9 10 10 9 8 8 6 6 6 7 8 11 12 nan nan nan 12 12 18 19 17 17 19 19 18 21 nan nan nan
33 33 33 31 31 39 37 39 40 40 40 41 39 36 31 29 29 28 24 23 23 22 23 23 23 23 22 21 20 21 22 23 23 22 21 20 20 19 18 17 16 15 14 13 12 10 9 8 7 7 8 7 6 5 6 7 8 9 9 8 7 5 4 3 5 7 10 12 nan nan nan 15 14 13 17 19 20 nan nan nan 20 21 21 21 nan
34 34 33 33 35 37 37 39 40 40 40 39 38 35 31 29 29 27 24 23 23 23 23 23 23 24 22 21 20 21 22 22 22 21 21 21 20 19 18 16 15 14 13 12 11 10 9 8 7 7 6 5 4 5 5 7 7 7 7 7 6 4 3 4 4 nan 12 14 nan nan 14 20 14 14 19 21 22 21 21 21 21 21 21 nan nan
34 33 34 34 40 38 39 41 41 40 39 38 36 34 31 29 29 26 23 23 23 24 23 23 23 23 22 20 21 21 21 21 21 21 20 20 19 19 18 16 15 13 12 12 11 10 9 8 6 6 6 5 5 5 5 6 6 6 6 7 5 4 3 5 6 nan 12 15 nan 13 12 15 15 15 21 21 22 22 21 22 22 22 nan nan nan
34 34 35 35 36 40 40 40 42 40 39 37 35 33 31 29 28 26 23 21 23 24 24 23 23 22 21 20 21 21 20 20 19 20 19 18 18 18 17 16 14 12 12 11 11 10 8 6 5 5 5 4 5 5 6 5 5 5 6 6 6 3 4 5 6 nan 12 13 14 14 14 nan 16 18 21 22 23 23 22 22 23 nan nan nan nan
37 35 35 37 37 43 43 41 41 40 38 36 33 31 30 28 28 25 22 21 23 23 22 23 23 22 21 20 20 19 18 18 18 19 19 18 17 17 15 14 13 11 10 9 9 9 7 5 4 4 4 4 4 4 5 5 4 4 5 6 6 3 3 5 6 10 12 13 13 14 nan nan 16 20 22 24 24 24 23 24 nan nan nan nan nan
41 39 39 38 39 39 46 43 40 40 36 32 30 30 29 28 27 23 22 23 23 23 23 24 23 22 21 20 20 18 17 17 18 18 18 17 15 14 13 12 11 10 8 7 7 7 6 5 3 3 3 2 3 4 4 3 3 3 4 6 6 4 3 6 6 9 12 13 13 14 nan nan 15 20 22 23 23 23 24 24 23 nan nan nan nan
42 43 40 39 40 39 39 42 42 39 35 33 30 30 31 29 26 23 21 22 22 21 22 23 23 22 20 20 18 17 16 17 17 17 17 16 15 13 12 10 9 8 7 6 5 5 5 4 3 4 4 2 2 3 3 3 3 2 3 5 6 5 2 5 6 7 11 12 nan 12 nan nan 14 18 20 22 23 23 23 24 nan nan nan nan nan
40 39 40 40 39 38 36 35 35 38 35 32 30 30 30 28 25 23 21 21 22 22 23 23 23 21 20 19 18 16 16 16 16 17 17 16 15 13 11 9 7 6 4 3 3 3 4 4 4 5 5 4 2 2 2 3 3 1 1 2 5 6 4 4 5 7 nan nan 12 nan nan nan 15 19 20 23 24 25 25 25 25 nan nan nan nan
36 34 36 36 35 33 31 30 31 28 26 28 30 31 30 28 24 22 21 21 21 22 23 23 22 21 20 19 17 16 15 15 15 16 16 15 14 13 11 9 7 6 4 2 2 2 2 2 3 4 4 3 2 2 2 3 2 2 2 1 2 6 5 7 7 8 nan 13 nan nan nan nan 16 20 21 24 25 26 26 26 25 26 nan nan nan
32 31 29 31 30 29 28 27 26 25 24 22 22 26 30 27 24 22 21 20 21 23 23 23 22 21 19 18 17 15 14 13 14 16 16 15 14 13 11 9 8 6 4 4 3 2 2 2 2 3 2 2 2 3 3 3 3 4 4 3 1 5 8 11 nan 8 10 14 nan nan nan 18 18 21 22 24 26 26 27 26 25 26 25 nan nan
31 29 27 25 25 25 25 24 24 23 22 21 22 22 27 27 23 22 21 21 22 23 23 22 22 21 20 18 17 14 13 12 12 13 15 15 13 14 12 11 8 7 6 5 4 3 2 3 2 1 0 2 2 2 2 3 4 5 5 5 3 3 11 nan nan 12 11 nan 15 nan nan 20 20 22 23 24 25 26 26 26 25 26 25 25 nan
28 27 26 26 25 25 26 24 23 23 22 21 21 21 23 24 21 22 21 21 21 22 23 23 22 21 19 18 16 13 12 11 10 12 12 14 14 12 12 11 9 6 6 4 3 2 1 1 1 2 2 1 1 1 2 3 5 5 5 4 4 7 11 nan nan 13 15 16 17 18 19 21 22 24 24 24 26 26 26 26 26 26 25 24 25
28 26 24 25 24 24 24 24 23 23 22 21 20 20 19 21 18 17 17 18 19 21 22 21 22 19 20 18 16 14 13 12 11 11 12 13 13 12 11 10 8 5 4 3 1 1 2 2 2 2 2 1 1 nan nan nan 4 4 4 3 4 6 nan nan 12 12 15 18 19 21 23 23 24 25 25 26 27 27 27 27 27 26 25 24 23
27 25 24 23 21 22 22 23 23 23 24 23 22 20 20 18 18 18 17 17 16 19 21 22 22 20 18 17 16 15 14 13 12 12 12 12 13 12 11 9 7 4 2 1 0 2 3 4 4 3 3 2 nan nan nan nan nan 4 3 5 6 7 7 9 13 16 15 17 20 22 26 26 26 28 27 27 28 28 28 28 28 27 26 24 22
26 25 24 22 22 22 22 22 24 23 23 23 23 23 20 18 18 18 17 16 17 20 21 22 21 19 18 17 16 15 14 14 12 11 9 11 10 9 9 10 8 5 3 3 1 1 1 2 4 4 3 nan nan nan nan 7 8 8 8 8 9 9 9 9 10 13 16 17 20 23 26 27 28 29 28 28 29 29 29 29 28 27 26 24 22
26 26 24 23 22 22 23 23 24 23 23 24 25 23 21 19 18 17 17 16 18 19 20 20 20 18 17 16 16 14 13 14 14 12 11 10 10 8 9 10 10 9 6 5 nan 3 3 3 4 5 6 nan nan nan nan nan nan nan nan nan nan 12 12 11 11 11 14 16 17 20 25 26 28 29 28 28 29 29 29 29 28 27 27 25 23
27 26 24 25 23 22 23 24 26 26 26 25 25 24 22 19 18 17 17 16 18 18 19 18 18 16 15 17 16 16 15 15 15 14 12 11 10 8 8 9 9 9 7 6 4 3 2 3 4 4 6 10 11 11 12 12 11 11 11 nan nan nan nan 12 12 12 13 14 15 17 22 24 26 27 27 27 28 29 29 29 28 27 26 25 21
24 24 24 24 23 21 22 25 25 26 27 27 26 24 22 19 18 18 17 17 18 18 18 18 17 16 16 17 19 16 15 15 16 16 14 12 10 9 9 9 8 7 7 7 5 4 4 3 3 4 6 8 10 12 12 12 13 11 11 11 12 13 13 12 12 13 13 14 15 14 19 22 24 24 25 25 25 26 27 28 27 24 18 15 19
21 21 21 21 21 21 21 25 25 26 24 24 25 22 21 21 19 19 18 18 20 18 19 19 19 18 17 18 18 19 18 16 16 16 14 12 11 10 10 9 8 7 6 6 5 4 4 4 4 4 5 7 8 9 11 11 11 12 11 10 11 12 12 12 12 13 14 14 15 15 16 19 21 22 23 22 22 23 24 25 23 23 23 11 11
18 18 19 19 19 20 20 22 24 25 22 20 20 18 20 21 21 20 18 17 20 19 20 21 20 18 17 17 18 21 20 18 17 16 14 12 10 11 10 10 10 8 8 6 6 4 4 5 5 5 5 6 8 8 10 11 12 12 12 12 13 13 14 14 15 16 16 16 18 18 18 20 21 21 21 20 20 20 21 22 23 25 28 19 16
24 21 20 20 20 19 18 19 20 20 20 20 17 16 19 22 21 19 18 18 20 21 21 23 21 19 18 18 19 20 21 22 21 18 15 12 11 11 11 11 11 10 10 9 7 6 5 5 7 7 6 7 8 8 10 10 12 13 13 14 14 15 16 17 18 19 20 21 21 21 19 20 21 21 20 20 19 18 17 20 22 27 23 18 15
31 26 22 22 21 18 18 19 19 19 18 19 17 16 18 20 21 20 19 19 20 22 23 24 22 19 18 19 21 22 23 22 23 20 15 13 13 12 13 12 13 12 12 11 9 8 7 8 7 7 7 8 9 9 11 12 12 13 14 14 14 15 15 16 16 17 18 17 19 21 20 18 19 19 20 19 18 17 15 16 18 19 25 16 8
32 29 27 25 23 18 19 20 20 21 19 19 18 17 17 20 22 23 21 21 21 22 23 23 24 19 19 20 20 19 20 18 20 20 16 14 14 15 15 15 14 14 14 13 11 10 8 8 9 9 10 11 11 11 11 12 13 13 13 14 14 15 16 16 16 17 18 18 19 19 19 19 19 19 18 17 16 14 14 13 14 19 18 20 14
26 28 26 26 23 21 21 20 21 23 24 25 24 19 17 20 23 23 22 21 20 20 22 24 24 20 18 18 17 15 16 15 15 19 18 15 16 18 19 18 16 16 15 14 13 11 10 10 10 10 12 12 13 12 11 13 14 13 14 14 15 16 16 17 17 18 19 20 20 20 21 21 22 22 23 21 21 20 18 15 18 19 23 26 18
27 24 24 24 24 24 23 22 21 21 23 26 26 21 19 21 24 24 23 21 19 20 22 22 22 19 17 16 15 13 14 15 14 18 19 17 17 19 20 19 18 17 16 14 14 12 11 12 10 12 12 13 13 12 13 13 13 14 15 15 16 17 17 19 19 20 21 23 24 25 25 25 25 26 26 26 26 23 21 24 26 28 30 31 25
25 24 25 25 26 26 25 23 21 21 24 25 24 21 20 23 25 26 24 21 20 21 21 20 19 16 16 14 12 12 15 15 14 16 20 19 18 19 19 19 19 17 16 14 14 12 13 13 12 12 12 13 13 nan 14 14 14 15 15 16 nan nan nan nan 21 22 24 25 27 27 26 26 27 28 28 28 28 28 30 31 35 36 34 36 33
25 26 27 26 27 27 25 23 23 26 27 27 24 22 21 21 23 25 23 21 20 19 19 17 17 15 15 13 12 16 18 17 15 16 20 20 19 19 18 18 17 17 16 14 14 13 12 14 13 nan nan nan nan 14 nan nan nan nan nan nan nan nan nan nan nan 24 25 26 27 27 26 27 27 28 29 28 28 27 31 34 39 44 46 46 44
24 26 26 26 27 27 26 25 26 29 30 29 27 24 23 22 22 22 21 20 19 18 17 16 16 16 15 14 16 19 19 18 16 15 18 19 18 18 17 17 16 18 17 15 15 13 14 14 14 nan nan nan nan nan nan nan nan nan nan nan nan nan nan nan nan nan 26 27 26 26 26 26 27 28 28 28 28 28 29 35 40 45 46 45 nan
22 24 25 25 26 26 25 23 24 27 28 28 26 26 26 26 24 22 20 20 19 17 17 16 16 15 14 15 15 18 19 19 16 14 16 18 17 17 17 16 16 18 17 16 15 14 15 15 16 nan nan nan nan nan nan nan nan nan nan nan nan nan nan nan nan nan 27 27 27 27 27 27 27 27 28 28 28 28 29 31 38 42 45 44 44
23 25 26 25 25 25 25 24 26 27 28 29 29 30 29 28 26 22 20 20 19 17 16 16 15 15 15 14 15 17 19 19 17 16 17 17 17 17 17 16 17 18 18 18 16 15 nan nan nan nan nan nan nan nan nan nan nan nan nan nan nan nan nan nan nan nan 29 28 28 28 28 28 28 nan nan nan 28 28 29 30 33 35 37 45 43
23 24 24 24 24 24 24 26 27 29 29 29 28 27 26 26 26 22 20 19 17 17 17 17 17 16 16 16 16 17 17 16 16 16 16 15 16 17 18 17 18 19 20 19 17 nan nan nan nan nan nan nan nan nan nan nan nan nan nan nan nan nan nan nan nan nan nan nan 28 28 29 28 29 29 nan nan nan nan nan 30 34 35 36 nan nan
23 23 23 21 21 22 23 25 25 25 26 26 25 24 24 24 23 21 20 17 17 18 18 18 18 16 15 16 17 18 17 16 15 15 14 14 16 18 20 19 19 20 20 19 nan nan nan nan nan nan nan nan nan nan nan nan nan nan nan nan nan nan nan nan nan nan nan nan nan 28 28 28 28 29 nan nan nan nan nan nan nan nan nan nan nan
22 22 22 20 20 20 20 21 21 22 24 24 24 24 22 23 23 20 20 19 18 19 19 17 16 14 14 14 16 18 18 15 14 14 13 14 17 19 20 20 20 21 21 nan nan nan nan nan nan nan nan nan nan nan nan nan nan nan nan nan nan nan nan nan 33 30 30 29 29 29 28 28 28 nan nan nan nan nan nan nan nan nan nan nan nan
22 21 20 21 20 18 17 20 21 23 24 24 24 25 24 23 23 21 22 21 19 18 18 15 13 13 12 13 15 16 16 16 15 13 14 16 18 20 20 21 21 21 21 nan nan nan nan nan nan nan nan nan nan nan nan nan nan nan nan nan nan nan nan nan nan nan 29 29 29 28 nan nan nan nan nan nan nan nan nan nan nan nan nan nan nan
20 20 21 21 20 19 20 24 26 24 24 23 24 26 27 25 24 24 23 21 20 19 18 15 13 12 14 14 15 14 16 16 14 14 14 16 18 20 21 22 22 nan nan nan nan nan nan nan nan nan nan nan nan nan nan nan nan nan nan nan nan nan nan nan nan nan nan nan nan nan nan nan nan nan nan nan nan nan nan nan nan nan nan nan nan
19 20 20 20 20 22 24 26 25 23 23 24 25 26 27 24 24 25 24 24 21 19 18 16 12 12 14 16 14 14 15 15 13 13 nan nan nan nan nan nan nan nan nan nan nan nan nan nan nan nan nan nan nan nan nan nan nan nan nan nan nan nan nan nan nan nan nan nan nan nan nan nan nan nan nan nan nan nan nan nan nan nan nan nan nan
19 19 20 20 21 23 25 24 23 23 24 24 24 23 23 23 22 22 22 21 18 16 15 12 11 14 15 12 14 13 13 13 12 nan nan nan nan nan nan nan nan nan nan nan nan nan nan nan nan nan nan nan nan nan nan nan nan nan nan nan nan nan nan nan nan nan nan nan nan nan nan nan nan nan nan nan nan nan nan nan nan nan nan nan nan
15 17 18 19 21 23 23 23 23 23 23 23 21 21 22 21 21 21 20 18 16 15 13 12 13 15 14 13 12 nan nan nan nan nan nan nan nan nan nan nan nan nan nan nan nan nan nan nan nan nan nan nan nan nan nan nan nan nan nan nan nan nan nan nan nan nan nan nan nan nan nan nan nan nan nan nan nan nan nan nan nan nan nan nan nan
15 18 19 19 21 22 22 23 23 22 22 22 20 19 21 21 21 19 17 16 15 14 13 14 16 15 14 12 nan 11 nan nan nan nan nan nan nan nan nan nan nan nan nan nan nan nan nan nan nan nan nan nan nan nan nan nan nan nan nan nan nan nan nan nan nan nan nan nan nan nan nan nan nan nan nan nan nan nan nan nan nan nan nan nan nan
19 20 20 19 19 20 21 23 23 23 22 21 20 19 21 20 19 17 17 16 16 14 15 16 16 13 14 11 11 nan nan nan nan nan nan nan nan nan nan nan nan nan nan nan nan nan nan nan nan nan nan nan nan nan nan nan nan nan nan nan nan nan nan nan nan nan nan nan nan nan nan nan nan nan nan nan nan nan nan nan nan nan nan nan nan
20 20 19 18 19 20 22 23 24 24 24 24 22 21 21 19 17 16 17 15 14 16 17 17 14 12 11 9 nan nan 11 nan nan nan nan nan nan nan nan nan nan nan nan nan nan nan nan nan nan nan nan nan nan nan nan nan nan nan nan nan nan nan nan nan nan nan nan nan nan nan nan nan nan nan nan nan nan nan nan nan nan nan nan nan nan
18 17 16 17 19 20 22 23 24 24 25 24 22 21 19 16 15 14 14 15 16 18 17 15 12 11 9 nan nan nan nan nan nan nan nan nan nan nan nan nan nan nan nan nan nan nan nan nan nan nan nan nan nan nan nan nan nan nan nan nan nan nan nan nan nan nan nan nan nan nan nan nan nan nan nan nan nan nan nan nan nan nan nan nan nan
Wind_Direction
340 336 338 338 341 341 339 338 340 340 339 335 329 324 321 318 317 317 317 315 315 315 314 313 313 315 319 323 325 326 328 330 331 330 327 326 325 320 313 305 296 289 287 284 285 288 290 292 296 297 299 304 305 301 300 301 299 292 291 293 292 292 303 320 317 300 304 305 300 291 297 302 302 299 298 298 294 290 nan nan 268 271 273 nan nan
333 333 332 335 339 338 337 337 338 338 337 334 328 323 320 317 316 317 317 315 313 312 311 310 310 312 316 321 322 324 326 328 329 330 328 325 324 319 317 309 298 291 288 287 287 288 290 291 291 291 293 298 299 299 298 299 296 291 288 287 291 296 298 293 289 287 298 295 293 293 296 306 308 303 303 302 298 294 291 288 279 275 285 277 274
318 324 328 332 336 336 335 336 336 335 334 332 327 322 318 316 315 316 316 313 310 310 309 308 308 310 315 318 321 323 324 326 328 329 328 326 323 322 319 308 305 301 295 293 291 292 293 292 290 289 290 295 302 304 303 299 298 296 297 294 292 297 298 297 293 288 285 285 282 293 304 309 308 308 306 302 298 295 295 292 288 284 287 nan nan
316 320 324 329 333 332 333 334 333 331 332 330 325 321 317 315 314 314 312 310 308 307 306 306 307 310 315 319 320 321 322 325 328 329 328 326 324 321 316 308 303 302 300 298 297 299 298 297 290 287 288 296 303 304 304 303 300 295 291 295 298 308 306 305 303 300 294 290 283 283 324 nan 318 305 302 301 301 300 297 nan nan nan nan nan nan
315 317 321 324 325 328 331 331 329 329 329 327 324 319 316 313 312 312 311 308 306 304 304 305 306 308 313 317 318 319 321 322 326 328 327 326 324 319 315 310 306 304 305 298 298 301 303 299 292 286 290 296 301 303 304 308 306 302 299 298 302 311 312 309 306 298 296 299 303 nan nan nan nan 304 304 306 306 302 299 nan nan nan nan nan nan
313 315 317 317 318 325 328 327 325 326 326 326 322 318 315 312 311 311 309 307 304 302 302 303 304 305 309 314 316 318 319 321 324 326 326 324 324 320 315 312 312 310 298 296 298 300 301 299 293 287 288 295 298 300 302 304 306 306 307 309 312 311 318 324 322 312 288 304 305 nan nan nan nan 314 305 306 306 301 299 nan nan nan nan nan nan
310 312 312 312 316 321 323 323 321 324 325 324 321 318 314 311 310 309 308 306 303 300 299 300 301 302 306 312 316 317 317 319 322 325 326 326 324 324 320 315 311 305 301 299 297 298 299 301 295 289 289 295 297 299 301 301 300 299 302 306 307 308 320 328 342 13 329 314 nan nan nan nan 318 306 306 307 305 304 307 307 301 300 nan nan nan
305 306 307 310 315 318 319 320 319 321 323 322 320 317 313 310 309 307 305 303 301 297 297 298 299 300 304 311 315 316 316 318 321 324 326 327 327 325 319 309 299 295 292 289 290 290 295 294 290 289 291 295 298 299 302 304 306 308 308 311 312 320 324 345 353 1 357 326 337 nan nan 322 310 317 314 312 311 312 311 308 308 nan nan nan nan
303 302 303 308 313 316 316 316 318 319 320 320 319 315 311 309 307 305 303 301 298 295 295 296 297 298 304 311 314 315 316 318 320 324 326 326 321 317 312 306 300 296 293 294 294 294 295 296 294 291 291 295 295 300 303 311 315 316 318 317 320 328 343 348 7 7 343 328 333 nan nan nan 312 319 318 316 316 316 313 311 310 310 nan nan nan
300 297 302 305 309 313 311 313 315 316 318 318 317 313 309 306 304 303 300 299 295 293 292 293 294 297 303 311 314 314 315 318 322 325 325 325 325 322 317 312 306 300 297 294 293 295 294 292 288 284 288 286 290 299 308 315 322 324 320 316 316 325 334 343 350 345 336 332 nan nan nan 325 320 322 322 320 321 nan nan nan 321 317 314 310 nan
296 297 300 302 306 306 307 309 311 313 315 316 315 310 306 305 304 301 298 297 295 291 291 291 294 296 303 310 313 313 316 319 323 326 326 326 323 320 315 307 302 293 289 289 288 287 286 287 281 275 276 279 289 302 313 319 327 323 316 309 312 318 310 303 319 nan 334 333 nan nan 337 328 326 333 331 325 323 322 320 319 317 313 313 nan nan
294 296 297 299 303 301 305 308 308 310 312 314 312 307 304 304 304 301 297 296 292 289 288 291 294 297 304 309 311 313 316 321 325 328 329 329 327 325 321 316 308 299 293 290 288 286 286 285 277 267 258 265 280 299 313 322 326 320 308 305 305 308 294 279 323 nan 327 331 nan 338 338 328 335 341 334 327 323 322 321 318 317 319 nan nan nan
295 296 296 295 296 301 304 304 306 307 310 312 310 306 303 305 304 299 294 292 290 288 290 292 293 296 303 307 310 313 317 320 322 325 328 330 329 329 328 323 316 308 301 298 296 291 289 285 274 261 250 256 278 298 314 322 320 311 305 304 303 306 294 276 326 nan 328 333 337 335 335 nan 339 342 334 329 324 323 321 319 317 nan nan nan nan
298 297 294 293 296 302 302 301 303 306 308 310 307 303 302 304 304 296 290 290 289 288 289 292 293 295 300 303 307 311 315 318 320 325 329 333 334 334 333 328 323 316 313 310 305 298 290 279 267 247 247 262 290 309 317 318 319 312 301 297 295 294 282 305 308 332 334 339 339 338 nan nan 343 341 335 329 326 324 323 321 nan nan nan nan nan
300 298 297 296 297 297 301 301 302 306 305 305 302 300 301 301 298 293 289 290 289 288 290 291 291 295 298 302 306 312 313 315 321 328 331 334 337 336 335 336 333 327 323 321 318 309 297 279 257 216 222 264 299 317 321 322 312 299 283 279 285 286 233 318 321 328 339 340 342 341 nan nan 349 341 335 330 327 324 324 321 320 nan nan nan nan
300 301 298 295 296 295 296 301 304 304 304 303 300 300 300 300 298 292 287 288 286 287 287 287 289 292 296 299 308 311 309 314 323 329 331 333 335 335 332 334 336 332 333 338 327 317 303 278 242 207 205 222 255 303 320 315 298 287 275 279 290 300 268 303 320 322 338 340 nan 335 nan nan 350 341 336 330 327 325 323 321 nan nan nan nan nan
301 300 297 295 292 291 294 297 299 304 303 300 298 298 297 298 295 289 286 287 288 288 285 284 286 288 293 300 307 307 307 317 325 329 332 333 334 331 329 327 328 330 333 337 332 321 305 282 242 212 205 212 229 271 312 320 307 307 298 278 289 299 303 309 328 335 nan nan 336 nan nan nan 345 344 339 333 331 328 327 324 323 nan nan nan nan
299 298 294 289 286 287 291 294 296 295 293 294 296 297 297 296 291 287 287 287 286 285 282 282 285 290 294 300 305 308 310 318 326 330 335 334 333 333 329 323 319 322 311 303 314 315 298 279 251 227 228 229 252 301 328 338 343 19 44 54 293 298 321 329 354 348 nan 340 nan nan nan nan 347 346 344 338 335 332 331 329 326 324 nan nan nan
292 290 288 285 285 288 289 289 290 288 284 283 285 294 296 294 292 290 286 284 283 282 281 283 286 289 292 298 305 308 311 319 327 333 338 338 337 331 327 323 315 308 291 274 269 260 261 270 238 248 264 304 333 345 346 1 23 46 63 70 55 322 320 329 nan 358 347 348 nan nan nan 348 348 349 348 343 339 336 334 332 330 329 327 nan nan
289 289 290 290 293 293 290 288 286 282 279 278 283 287 294 296 294 288 285 283 282 282 285 286 287 289 295 301 308 309 309 315 329 333 341 342 339 333 330 323 317 301 290 278 261 265 244 243 223 184 69 5 350 357 26 45 50 59 62 73 56 346 325 nan nan 347 345 nan 343 nan nan 350 350 353 352 347 343 340 338 335 333 331 330 326 nan
295 295 300 301 298 295 292 289 285 280 278 280 281 284 291 294 291 288 284 283 285 289 289 290 288 292 294 303 302 301 297 307 315 327 346 340 344 336 327 322 318 312 299 291 277 275 268 250 204 135 126 120 49 42 61 71 80 76 75 71 67 340 332 nan nan 341 339 345 348 349 355 355 353 354 356 352 347 343 340 338 335 333 332 329 325
300 298 296 295 295 294 293 291 289 287 285 284 282 280 279 283 276 273 272 280 290 293 287 286 290 285 299 299 303 308 303 306 315 335 336 343 343 344 330 322 318 314 314 305 320 9 67 76 78 78 75 84 122 nan nan nan 71 65 66 72 1 358 nan nan 335 345 342 345 348 353 359 358 354 356 358 356 352 347 342 339 338 335 334 331 326
295 291 289 288 290 291 293 296 295 295 294 291 285 275 273 273 273 271 273 286 290 286 283 283 279 288 293 301 308 308 305 308 313 330 341 358 349 344 331 320 312 305 300 223 55 88 92 93 89 75 49 13 nan nan nan nan nan 64 43 4 6 6 4 345 338 341 349 347 349 356 358 358 356 358 359 358 354 351 345 341 339 336 334 331 327
289 287 286 284 290 293 295 299 300 299 298 293 285 277 274 275 274 273 274 278 275 280 281 281 288 293 300 303 310 311 309 308 322 335 330 332 334 332 318 308 300 300 266 303 297 343 110 69 65 65 15 nan nan nan nan 15 18 17 14 10 6 6 6 4 351 342 344 348 349 358 358 358 357 359 359 357 354 352 348 343 340 338 334 329 326
283 279 282 290 293 296 299 300 299 297 295 292 290 285 279 277 275 274 276 277 275 281 285 286 292 297 301 303 307 309 306 307 304 304 312 317 321 327 321 314 310 312 299 319 nan 346 352 17 11 13 7 nan nan nan nan nan nan nan nan nan nan 360 1 360 354 344 340 344 348 355 356 357 356 357 358 357 355 353 350 345 342 338 331 327 329
275 285 291 291 292 296 302 299 300 298 293 290 290 292 287 279 277 276 275 273 273 277 282 288 288 292 296 298 301 299 296 292 291 295 301 304 310 318 321 319 309 307 311 322 333 334 352 6 7 11 4 1 4 2 359 356 1 358 356 nan nan nan nan 350 347 341 337 340 342 353 351 355 354 355 358 359 356 353 350 347 343 336 329 322 325
279 284 286 289 294 295 297 295 296 295 292 288 284 284 285 282 279 278 279 280 276 276 280 282 282 285 288 290 294 295 290 287 285 287 294 298 304 315 319 315 306 307 312 315 325 336 347 354 4 4 357 350 351 349 348 346 345 346 342 339 338 338 338 339 338 334 333 335 335 343 344 348 352 352 356 359 357 354 350 347 342 326 307 307 332
262 277 285 291 296 297 293 293 294 290 285 282 280 283 288 285 281 282 283 285 283 283 284 282 281 287 292 295 295 296 294 289 289 289 292 296 304 308 309 305 296 298 303 304 318 330 322 326 341 339 332 331 328 327 329 330 330 329 325 321 321 321 322 325 326 325 324 323 320 324 336 342 344 347 351 353 356 354 351 346 336 322 307 308 351
278 284 292 293 294 289 292 297 295 290 281 276 279 282 286 282 277 280 285 288 284 286 283 280 285 289 291 294 299 297 294 292 288 289 288 288 291 293 297 297 296 290 287 291 301 303 304 308 310 312 312 316 311 310 311 312 315 316 313 313 312 313 315 318 319 319 318 319 318 318 327 334 338 340 342 344 349 352 351 343 334 331 316 347 359
321 311 301 294 283 284 295 303 300 293 282 273 271 278 282 280 280 282 281 283 283 285 283 286 285 286 292 295 290 289 288 289 284 280 280 277 280 289 289 289 287 285 284 279 287 295 300 295 299 298 299 299 298 300 298 299 298 306 310 310 308 311 316 316 316 317 317 315 315 316 321 326 331 332 333 338 341 344 343 331 339 324 314 340 350
313 312 301 292 285 286 291 291 297 297 288 274 265 270 275 281 284 285 285 287 284 285 285 282 281 283 286 284 282 285 284 282 280 276 266 272 271 276 278 278 277 279 278 275 286 294 304 305 306 304 295 288 288 293 292 292 294 292 296 299 302 304 301 302 302 302 302 303 305 309 309 313 320 323 325 328 328 327 329 324 317 309 311 323 339
307 308 304 290 280 284 283 283 285 290 282 270 267 267 273 281 281 282 283 281 282 283 283 282 282 283 283 284 280 279 277 274 273 268 264 265 267 269 270 273 271 272 271 274 276 279 287 295 296 298 293 287 286 285 289 288 287 289 291 292 297 295 293 295 297 297 301 301 300 302 306 308 311 310 303 288 288 284 275 268 276 289 298 306 326
301 305 301 292 291 288 284 282 278 279 275 272 273 272 273 277 279 279 276 277 279 278 280 280 283 285 284 281 278 279 277 274 269 268 260 259 265 267 268 269 270 271 273 274 276 276 277 278 274 284 280 284 285 284 289 289 287 289 293 292 293 291 294 298 298 300 301 303 301 301 299 298 294 286 280 282 279 273 274 282 277 276 280 289 302
292 292 293 301 298 286 278 273 272 273 273 273 276 273 271 273 273 272 273 274 275 275 277 277 283 284 282 278 275 277 278 272 277 269 257 253 254 261 268 273 275 277 275 273 273 277 277 273 272 277 280 286 289 291 288 288 294 298 293 296 295 293 298 296 296 297 296 292 292 289 289 289 288 288 286 275 269 269 273 267 263 264 264 272 278
280 285 294 298 293 284 276 271 275 274 275 278 280 275 270 271 272 273 272 273 272 273 275 277 280 279 276 274 275 280 275 273 272 267 252 247 251 259 265 272 276 276 272 270 276 277 276 273 274 279 289 285 290 nan 291 295 293 290 293 294 nan nan nan nan 293 291 290 291 288 287 286 286 285 284 282 283 277 263 259 258 257 258 260 259 260
282 279 279 280 282 280 275 272 272 272 271 274 273 271 270 270 273 276 271 268 270 272 277 281 282 276 271 274 280 277 276 274 270 260 253 248 254 262 266 268 271 272 270 270 271 270 275 277 277 nan nan nan nan 285 nan nan nan nan nan nan nan nan nan nan nan 295 294 292 290 289 289 287 285 285 282 283 282 275 256 257 259 258 258 258 259
272 276 277 276 274 271 269 272 275 271 268 267 266 264 266 271 273 270 268 268 269 271 275 278 275 272 265 270 272 275 275 272 265 258 253 249 254 260 260 264 267 268 268 269 271 274 279 283 280 nan nan nan nan nan nan nan nan nan nan nan nan nan nan nan nan nan 297 292 293 292 291 289 288 282 286 284 282 281 268 258 261 259 258 257 nan
279 278 278 278 273 266 265 270 272 269 268 267 265 265 266 268 268 267 266 266 264 267 270 272 271 269 265 266 270 275 277 270 261 256 251 248 252 257 260 262 266 268 270 270 271 275 278 280 281 nan nan nan nan nan nan nan nan nan nan nan nan nan nan nan nan nan 296 294 294 293 294 294 290 287 287 285 283 281 279 272 264 261 256 257 256
281 279 275 272 268 262 260 265 270 268 265 263 266 267 268 266 263 261 261 260 259 260 266 268 267 263 262 264 266 270 273 266 259 255 250 246 251 257 261 263 268 270 270 270 271 273 nan nan nan nan nan nan nan nan nan nan nan nan nan nan nan nan nan nan nan nan 297 297 295 295 296 291 292 nan nan nan 285 282 279 280 277 275 268 255 256
285 279 275 273 270 264 261 262 265 266 263 263 266 269 268 270 269 262 258 259 256 258 259 263 261 261 262 263 260 259 257 254 252 251 250 252 260 263 265 264 266 270 271 271 272 nan nan nan nan nan nan nan nan nan nan nan nan nan nan nan nan nan nan nan nan nan nan nan 297 297 293 294 292 291 nan nan nan nan nan 280 280 276 275 nan nan
287 285 280 275 275 274 272 270 265 265 267 267 268 274 277 278 267 261 265 265 261 260 257 257 259 261 262 260 257 249 240 236 236 241 247 260 267 271 271 269 270 273 275 276 nan nan nan nan nan nan nan nan nan nan nan nan nan nan nan nan nan nan nan nan nan nan nan nan nan 297 297 294 292 291 nan nan nan nan nan nan nan nan nan nan nan
292 287 286 279 273 275 276 273 267 267 267 269 271 270 277 285 277 265 267 264 262 262 263 259 261 262 260 257 250 240 232 229 230 237 249 261 267 269 270 272 274 275 277 nan nan nan nan nan nan nan nan nan nan nan nan nan nan nan nan nan nan nan nan nan 301 301 301 301 300 298 298 295 292 nan nan nan nan nan nan nan nan nan nan nan nan
296 292 282 278 277 274 274 282 280 276 268 267 267 272 275 275 267 260 265 263 252 257 261 261 261 261 252 240 230 226 228 231 232 240 252 257 265 270 271 274 273 278 281 nan nan nan nan nan nan nan nan nan nan nan nan nan nan nan nan nan nan nan nan nan nan nan 303 301 300 296 nan nan nan nan nan nan nan nan nan nan nan nan nan nan nan
292 287 285 283 275 271 278 288 285 275 271 268 268 270 272 266 255 257 257 260 264 258 255 251 250 251 239 226 225 232 238 241 239 244 252 257 265 270 274 274 275 nan nan nan nan nan nan nan nan nan nan nan nan nan nan nan nan nan nan nan nan nan nan nan nan nan nan nan nan nan nan nan nan nan nan nan nan nan nan nan nan nan nan nan nan
291 288 284 277 268 273 281 287 283 277 274 275 276 276 272 259 256 257 260 260 253 250 249 241 240 246 236 229 237 245 247 247 246 249 nan nan nan nan nan nan nan nan nan nan nan nan nan nan nan nan nan nan nan nan nan nan nan nan nan nan nan nan nan nan nan nan nan nan nan nan nan nan nan nan nan nan nan nan nan nan nan nan nan nan nan
294 286 280 273 271 274 279 281 276 275 278 279 281 276 269 267 268 269 267 262 258 251 250 256 249 241 237 238 243 241 245 248 247 nan nan nan nan nan nan nan nan nan nan nan nan nan nan nan nan nan nan nan nan nan nan nan nan nan nan nan nan nan nan nan nan nan nan nan nan nan nan nan nan nan nan nan nan nan nan nan nan nan nan nan nan
288 283 279 276 277 279 280 277 276 277 281 282 279 267 260 262 268 270 271 271 264 243 245 246 248 242 239 239 238 nan nan nan nan nan nan nan nan nan nan nan nan nan nan nan nan nan nan nan nan nan nan nan nan nan nan nan nan nan nan nan nan nan nan nan nan nan nan nan nan nan nan nan nan nan nan nan nan nan nan nan nan nan nan nan nan
289 287 284 281 283 279 278 277 278 282 283 281 272 263 262 261 261 259 260 260 254 256 258 250 237 236 239 235 nan 235 nan nan nan nan nan nan nan nan nan nan nan nan nan nan nan nan nan nan nan nan nan nan nan nan nan nan nan nan nan nan nan nan nan nan nan nan nan nan nan nan nan nan nan nan nan nan nan nan nan nan nan nan nan nan nan
293 293 288 282 277 275 274 277 282 284 280 275 268 261 261 263 262 261 257 250 257 256 249 239 235 235 244 233 237 nan nan nan nan nan nan nan nan nan nan nan nan nan nan nan nan nan nan nan nan nan nan nan nan nan nan nan nan nan nan nan nan nan nan nan nan nan nan nan nan nan nan nan nan nan nan nan nan nan nan nan nan nan nan nan nan
286 286 282 275 273 273 276 279 281 278 276 273 270 266 263 261 260 260 268 267 266 253 240 239 238 238 242 234 nan nan 247 nan nan nan nan nan nan nan nan nan nan nan nan nan nan nan nan nan nan nan nan nan nan nan nan nan nan nan nan nan nan nan nan nan nan nan nan nan nan nan nan nan nan nan nan nan nan nan nan nan nan nan nan nan nan
282 285 277 272 273 275 278 281 279 274 273 274 273 271 266 259 257 267 274 275 265 253 247 244 242 235 238 nan nan nan nan nan nan nan nan nan nan nan nan nan nan nan nan nan nan nan nan nan nan nan nan nan nan nan nan nan nan nan nan nan nan nan nan nan nan nan nan nan nan nan nan nan nan nan nan nan nan nan nan nan nan nan nan nan nan